Location: *
(45.9500°N, 9.0833°E)
Time: 02:16:15
(UTC+00:00)

SR - Pass Details

Date: 23 June 2021
Orbit: 577 x 878 km, 66.7° (Epoch: 23 July)

Event Time Altitude Azimuth Distance (km) Brightness Sun altitude
Rises 20:57:05 0° 329° (NNW) 3,373 ? -12.8°
Reaches altitude 10° 21:01:23 10° 360° (N) 2,368 ? -13.3°
Maximum altitude 21:03:27 12° 22° (NNE) 2,189 ? -13.5°
Drops below altitude 10° 21:05:26 10° 45° (NE) 2,290 ? -13.7°
Sets 21:09:24 0° 76° (ENE) 3,127 ? -14.0°
